Abingdon, VA

5:57 PM EDT on March 27, 2017 (GMT -0400)
Virginia Highlands

Weather History for KVJI - November, 2013

Change the Weather History Date:

Saturday, November 30, 2013

  Actual Average (KTRI) Record (KTRI)
Temperature  
Mean Temperature 40 °F -  
Max Temperature 50 °F 51 °F 76 °F (1991)
Min Temperature 31 °F 31 °F 10 °F (1976)
Degree Days  
Heating Degree Days 24    
Moisture  
Dew Point 27 °F    
Average Humidity 66    
Maximum Humidity 75    
Minimum Humidity 47    
Precipitation  
Precipitation 0.00 in - - ()
Sea Level Pressure  
Sea Level Pressure 30.41 in    
Wind  
Wind Speed 10 mph (East)    
Max Wind Speed 15 mph    
Max Gust Speed 17 mph    
Visibility 10 miles    
Events      
Averages and records for this station are not official NWS values.
T = Trace of Precipitation, MM = Missing Value Source: NWS Daily Summary

Daily Weather History Graph

Daily Weather History Graph

Search for Another Location

Airport or City:

Trip Planner

Search our weather history database for the weather conditions in past years. The results will help you decide how hot, cold, wet, or windy it might be!

Date:

Astronomy

Nov. 30, 2013 Rise Set
Actual Time 7:21 AM EST 5:12 PM EST
Civil Twilight 6:52 AM EST 5:40 PM EST
Nautical Twilight 6:20 AM EST 6:12 PM EST
Astronomical Twilight 5:49 AM EST 6:43 PM EST
Moon 4:34 AM EST (11/30) 3:32 PM EST (11/30)
Length of Visible Light 10h 47m
Length of Day
9h 51m
Waning Crescent, 7% of the Moon is Illuminated
Nov 30
Waning Crescent
Dec 2
New
Dec 9
First Quarter
Dec 17
Full
Dec 25
Last Quarter

Hourly Weather History & Observations

Time (EST) Temp. Windchill Dew Point Humidity Pressure Visibility Wind Dir Wind Speed Gust Speed Precip Events Conditions
12:15 AM 34.5 °F 26.2 °F 26.6 °F 73% 30.49 in 10.0 mi East 11.5 mph - N/A   Clear
12:35 AM 34.7 °F 26.4 °F 26.6 °F 72% 30.49 in 10.0 mi East 11.5 mph - N/A   Clear
12:55 AM 34.3 °F 25.5 °F 26.6 °F 73% 30.49 in 10.0 mi East 12.7 mph - N/A   Clear
1:15 AM 34.0 °F 25.5 °F 26.4 °F 74% 30.49 in 10.0 mi East 11.5 mph - N/A   Clear
1:35 AM 34.0 °F 25.0 °F 26.2 °F 73% 30.49 in 10.0 mi East 12.7 mph - N/A   Clear
1:55 AM 34.3 °F 25.9 °F 25.9 °F 71% 30.49 in 10.0 mi East 11.5 mph - N/A   Clear
2:15 AM 34.2 °F 26.2 °F 25.7 °F 71% 30.49 in 10.0 mi East 10.4 mph - N/A   Clear
2:35 AM 33.8 °F 25.8 °F 25.7 °F 72% 30.49 in 10.0 mi East 10.4 mph - N/A   Clear
2:55 AM 33.8 °F 24.8 °F 25.5 °F 72% 30.49 in 10.0 mi East 12.7 mph - N/A   Clear
3:15 AM 33.4 °F 24.3 °F 25.3 °F 72% 30.48 in 10.0 mi East 12.7 mph - N/A   Clear
3:35 AM 33.6 °F 26.2 °F 25.2 °F 71% 30.48 in 10.0 mi East 9.2 mph - N/A   Clear
3:55 AM 33.4 °F 24.8 °F 24.8 °F 71% 30.48 in 10.0 mi East 11.5 mph - N/A   Clear
4:15 AM 32.9 °F 23.7 °F 24.8 °F 72% 30.48 in 10.0 mi East 12.7 mph - N/A   Clear
4:35 AM 32.9 °F 24.1 °F 24.6 °F 72% 30.48 in 10.0 mi East 11.5 mph 16.1 mph N/A   Clear
4:55 AM 32.5 °F 23.7 °F 24.6 °F 73% 30.48 in 10.0 mi East 11.5 mph - N/A   Clear
5:15 AM 32.4 °F 24.0 °F 24.4 °F 73% 30.49 in 10.0 mi East 10.4 mph - N/A   Clear
5:35 AM 32.2 °F 23.2 °F 24.6 °F 74% 30.49 in 10.0 mi East 11.5 mph - N/A   Clear
5:55 AM 32.0 °F 23.6 °F 24.4 °F 74% 30.49 in 10.0 mi East 10.4 mph - N/A   Clear
6:15 AM 32.0 °F 24.2 °F 24.4 °F 74% 30.49 in 10.0 mi East 9.2 mph - N/A   Clear
6:35 AM 32.0 °F 24.8 °F 24.3 °F 73% 30.50 in 10.0 mi East 8.1 mph - N/A   Clear
6:55 AM 32.0 °F 24.8 °F 24.3 °F 73% 30.50 in 10.0 mi East 8.1 mph - N/A   Clear
7:15 AM 31.6 °F 23.7 °F 24.3 °F 74% 30.51 in 10.0 mi East 9.2 mph - N/A   Clear
7:35 AM 31.6 °F 23.7 °F 24.3 °F 74% 30.51 in 10.0 mi East 9.2 mph - N/A   Clear
7:55 AM 32.0 °F 23.0 °F 24.6 °F 74% 30.50 in 10.0 mi East 11.5 mph - N/A   Clear
8:15 AM 32.0 °F 22.1 °F 24.8 °F 75% 30.50 in 10.0 mi East 13.8 mph 17.3 mph N/A   Clear
8:35 AM 32.9 °F 23.7 °F 25.3 °F 74% 30.50 in 10.0 mi East 12.7 mph - N/A   Clear
8:55 AM 33.4 °F 23.5 °F 25.3 °F 72% 30.50 in 10.0 mi East 15.0 mph - N/A   Clear
9:15 AM 33.8 °F 24.8 °F 25.7 °F 72% 30.50 in 10.0 mi East 12.7 mph - N/A   Clear
9:35 AM 34.9 °F 26.2 °F 26.2 °F 71% 30.50 in 10.0 mi East 12.7 mph - N/A   Clear
9:55 AM 36.3 °F 27.5 °F 26.1 °F 66% 30.50 in 10.0 mi East 13.8 mph - N/A   Clear
10:15 AM 37.4 °F 29.3 °F 26.6 °F 65% 30.50 in 10.0 mi East 12.7 mph - N/A   Clear
10:35 AM 39.0 °F 31.8 °F 27.5 °F 63% 30.50 in 10.0 mi ESE 11.5 mph - N/A   Clear
10:55 AM 39.7 °F 32.7 °F 27.0 °F 60% 30.49 in 10.0 mi East 11.5 mph - N/A   Clear
11:15 AM 40.8 °F 34.5 °F 28.0 °F 60% 30.48 in 10.0 mi East 10.4 mph - N/A   Clear
11:35 AM 41.5 °F 35.4 °F 28.4 °F 60% 30.48 in 10.0 mi East 10.4 mph - N/A   Clear
11:55 AM 42.4 °F 37.0 °F 28.8 °F 58% 30.46 in 10.0 mi ESE 9.2 mph - N/A   Clear
12:15 PM 43.9 °F 39.3 °F 29.5 °F 57% 30.45 in 10.0 mi East 8.1 mph - N/A   Clear
12:35 PM 45.0 °F 41.2 °F 29.7 °F 55% 30.44 in 10.0 mi East 6.9 mph - N/A   Clear
12:55 PM 45.3 °F 41.6 °F 29.5 °F 54% 30.43 in 10.0 mi East 6.9 mph - N/A   Clear
1:15 PM 46.8 °F - 30.6 °F 53% 30.42 in 10.0 mi East 8.1 mph - N/A   Clear
1:35 PM 47.3 °F - 30.0 °F 51% 30.41 in 10.0 mi East 4.6 mph - N/A   Clear
1:55 PM 48.4 °F - 30.4 °F 50% 30.40 in 10.0 mi ESE 4.6 mph - N/A   Clear
2:15 PM 49.1 °F - 30.7 °F 49% 30.39 in 10.0 mi East 3.5 mph - N/A   Clear
2:35 PM 49.6 °F - 30.4 °F 48% 30.37 in 10.0 mi Calm Calm - N/A   Clear
2:55 PM 50.2 °F - 30.7 °F 47% 30.36 in 10.0 mi SE 3.5 mph - N/A   Clear
3:15 PM 50.4 °F - 30.7 °F 47% 30.35 in 10.0 mi ESE 4.6 mph - N/A   Clear
3:35 PM 50.0 °F - 30.9 °F 48% 30.34 in 10.0 mi East 6.9 mph - N/A   Clear
3:55 PM 50.0 °F - 30.9 °F 48% 30.33 in 10.0 mi ESE 5.8 mph - N/A   Clear
4:15 PM 49.3 °F - 31.1 °F 50% 30.33 in 10.0 mi East 5.8 mph - N/A   Clear
4:35 PM 48.2 °F - 31.3 °F 52% 30.33 in 10.0 mi East 4.6 mph - N/A   Clear
4:55 PM 46.8 °F - 30.7 °F 54% 30.33 in 10.0 mi East 3.5 mph - N/A   Clear
5:15 PM 46.0 °F 43.9 °F 30.2 °F 54% 30.32 in 10.0 mi ESE 4.6 mph - N/A   Clear
5:35 PM 42.8 °F 40.1 °F 30.2 °F 61% 30.33 in 10.0 mi East 4.6 mph - N/A   Clear
5:55 PM 42.1 °F 39.2 °F 30.0 °F 62% 30.32 in 10.0 mi East 4.6 mph - N/A   Clear
6:15 PM 40.5 °F 36.5 °F 29.8 °F 66% 30.33 in 10.0 mi East 5.8 mph - N/A   Clear
6:35 PM 40.8 °F 35.6 °F 30.0 °F 65% 30.32 in 10.0 mi East 8.1 mph - N/A   Clear
6:55 PM 38.8 °F 33.2 °F 30.0 °F 71% 30.32 in 10.0 mi East 8.1 mph - N/A   Clear
7:15 PM 38.3 °F 32.5 °F 29.7 °F 71% 30.32 in 10.0 mi East 8.1 mph - N/A   Clear
7:35 PM 37.8 °F 31.8 °F 29.3 °F 72% 30.32 in 10.0 mi East 8.1 mph - N/A   Clear
7:55 PM 37.9 °F 32.7 °F 28.6 °F 69% 30.31 in 10.0 mi East 6.9 mph - N/A   Clear
8:15 PM 37.6 °F 34.0 °F 28.0 °F 68% 30.31 in 10.0 mi East 4.6 mph - N/A   Clear
8:35 PM 37.9 °F 35.5 °F 27.5 °F 66% 30.31 in 10.0 mi ENE 3.5 mph - N/A   Clear
8:55 PM 37.6 °F 34.0 °F 27.5 °F 67% 30.31 in 10.0 mi East 4.6 mph - N/A   Clear
9:15 PM 37.0 °F 33.3 °F 27.3 °F 68% 30.31 in 10.0 mi East 4.6 mph - N/A   Clear
9:35 PM 36.0 °F 30.3 °F 27.1 °F 70% 30.31 in 10.0 mi East 6.9 mph - N/A   Clear
9:55 PM 35.4 °F 30.5 °F 27.0 °F 71% 30.31 in 10.0 mi East 5.8 mph - N/A   Clear
10:15 PM 34.7 °F 28.1 °F 26.8 °F 73% 30.30 in 10.0 mi East 8.1 mph - N/A   Clear
10:35 PM 34.0 °F 29.8 °F 26.6 °F 74% 30.30 in 10.0 mi East 4.6 mph - N/A   Clear
10:55 PM 33.8 °F 28.6 °F 26.6 °F 75% 30.30 in 10.0 mi East 5.8 mph - N/A   Clear
11:15 PM 34.0 °F 27.2 °F 26.4 °F 74% 30.29 in 10.0 mi East 8.1 mph - N/A   Clear
11:35 PM 33.4 °F 26.6 °F 26.4 °F 75% 30.28 in 10.0 mi East 8.1 mph - N/A   Clear
11:55 PM 33.8 °F 28.6 °F 26.2 °F 74% 30.28 in 10.0 mi East 5.8 mph - N/A   Clear